GW3042 Weather Reports


time (UTC)temp
C
wind
direction
speed
KPH
gust
KPH
rain 1hr
cm
rain 24hr
cm
rain mn
cm
humidity
%
barometer
mb
20260507030033 9 45 0.0 1.6 0.05 2.72 0.18 95 1013.3
20260507024522 9 45 0.0 3.2 0.03 2.69 0.15 95 1013.4
20260507023011 9 40 0.0 0.0 0.03 2.69 0.15 94 1013.3
20260507021600 9 40 0.0 0.0 0.05 2.69 0.15 94 1013.3
20260507020057 9 40 0.0 0.0 0.03 2.84 0.15 95 1013.1
20260507014548 9 40 0.0 0.0 0.03 2.84 0.15 94 1012.9
20260507013034 10 40 0.0 0.0 0.05 2.84 0.15 94 1012.6
20260507011525 10 40 0.0 0.0 0.03 2.84 0.13 94 1012.8
20260507010003 10 40 0.0 0.0 0.05 2.84 0.13 94 1012.7
20260507004553 10 40 0.0 0.0 0.05 2.84 0.13 94 1012.7
20260507003039 10 40 0.0 0.0 0.03 2.84 0.10 94 1012.7
20260507001534 10 40 0.0 1.6 0.05 2.84 0.10 94 1012.8
20260507000017 10 40 0.0 1.6 0.05 2.84 0.08 94 1012.6
20260506234506 10 40 0.0 1.6 0.05 2.84 0.08 94 1012.7
20260506233059 10 40 0.0 0.0 0.05 2.84 0.08 94 1012.8
20260506231554 11 40 0.0 3.2 0.05 2.82 0.05 94 1012.9
20260506230037 11 38 0.0 1.6 0.05 2.79 0.05 94 1012.8
20260506224527 11 38 0.0 0.0 0.05 2.79 0.05 94 1012.9
20260506223018 11 38 0.0 0.0 0.05 2.77 0.03 94 1012.8
20260506221507 11 38 0.0 1.6 0.05 2.77 0.03 94 1012.7
20260506214548 11 38 0.0 1.6 0.05 2.79 2.74 93 1012.5
20260506213037 11 38 0.0 1.6 0.05 2.79 2.74 93 1012.3
20260506211523 11 38 0.0 1.6 0.05 2.77 2.72 93 1012.4
20260506210012 11 38 0.0 0.0 0.05 2.77 2.69 92 1012.6
20260506204600 11 38 0.0 3.2 0.05 2.77 2.69 92 1012.0
20260506203046 11 38 0.0 0.0 0.05 2.74 2.69 92 1011.6
20260506201538 11 38 0.0 0.0 0.08 2.74 2.69 92 1011.5
20260506200022 11 38 0.0 1.6 0.08 2.72 2.67 92 1011.5
20260506194511 11 38 3.2 8.0 0.08 2.69 2.64 91 1011.3
20260506193104 11 203 3.2 6.4 0.05 2.69 2.62 91 1011.1
20260506191549 12 256 0.0 3.2 0.05 2.67 2.59 91 1010.9
20260506190039 12 256 0.0 3.2 0.03 2.64 2.59 90 1010.6
20260506184526 12 256 0.0 1.6 0.00 2.62 2.57 89 1010.1
20260506183014 12 256 0.0 0.0 0.00 2.62 2.57 89 1009.6
20260506181504 12 256 0.0 0.0 0.00 2.62 2.57 88 1009.7
20260506180055 12 256 0.0 0.0 0.00 2.64 2.57 87 1009.6
20260506174544 12 256 0.0 3.2 0.00 2.64 2.57 87 1009.5
20260506173045 12 256 0.0 3.2 0.00 2.64 2.57 86 1009.3
20260506171527 13 255 1.6 4.8 0.00 2.64 2.57 86 1009.3
20260506170011 13 243 1.6 8.0 0.03 2.64 2.57 86 1009.1
20260506164608 13 198 3.2 8.0 0.05 2.64 2.57 85 1009.1
20260506163103 13 249 1.6 9.7 0.05 2.64 2.57 84 1009.1
20260506161541 13 233 1.6 6.4 0.10 2.64 2.57 88 1008.9
20260506160028 13 225 1.6 4.8 0.13 2.62 2.54 90 1009.2
20260506154516 13 235 1.6 6.4 0.15 2.59 2.51 91 1009.4
20260506153007 12 171 1.6 6.4 0.15 2.57 2.49 91 1009.5
20260506151556 12 127 0.0 4.8 0.18 2.54 2.46 92 1009.6
20260506150046 12 225 0.0 3.2 0.20 2.49 2.41 93 1009.6
20260506144539 11 192 0.0 6.4 0.23 2.46 2.39 92 1009.8
20260506143026 11 141 0.0 1.6 0.25 2.41 2.34 93 1010.1
20260506141515 11 141 0.0 3.2 0.30 2.36 2.29 92 1010.1
20260506140004 11 113 1.6 17.7 0.33 2.31 2.21 92 1010.0
20260506134549 10 155 6.4 17.7 0.28 2.21 2.13 92 1010.4
20260506133038 10 54 0.0 4.8 0.23 2.13 2.06 90 1010.5
20260506131530 10 44 0.0 4.8 0.18 2.06 1.98 89 1010.6
20260506130009 11 44 0.0 11.3 0.10 1.98 1.91 88 1010.7
20260506124601 12 33 1.6 11.3 0.05 1.93 1.85 87 1010.0
20260506123047 13 79 0.0 6.4 0.03 1.91 1.83 86 1009.3
20260506121537 13 148 0.0 3.2 0.00 1.88 1.80 85 1008.3
20260506120021 14 148 0.0 4.8 0.00 1.88 1.80 81 1007.6
20260506114511 14 81 1.6 14.5 0.00 1.88 1.80 81 1007.7
20260506113102 14 121 6.4 19.3 0.00 1.88 1.80 82 1007.7
20260506111552 13 155 6.4 22.5 0.00 1.88 1.80 83 1007.8
20260506110050 13 139 9.7 24.1 0.00 1.88 1.80 83 1008.2
20260506104530 12 194 3.2 24.1 0.00 1.88 1.80 85 1008.5
20260506103020 12 104 9.7 19.3 0.03 1.88 1.80 85 1008.7
20260506101518 12 167 3.2 17.7 0.03 1.88 1.80 86 1008.5
20260506100119 12 132 3.2 19.3 0.03 1.93 1.80 88 1008.0
20260506094551 12 152 3.2 16.1 0.03 1.93 1.80 90 1008.0
20260506093044 12 118 0.0 12.9 0.00 1.93 1.78 92 1008.1
20260506091533 12 226 0.0 1.6 0.00 1.93 1.78 94 1007.9
20260506090016 12 226 0.0 1.6 0.03 2.39 1.78 94 1007.8
20260506084506 12 256 0.0 3.2 0.05 2.39 1.78 95 1008.0
20260506083055 11 331 0.0 3.2 0.05 2.39 1.78 95 1008.3
20260506081550 12 29 0.0 3.2 0.05 2.39 1.78 96 1008.2
20260506073009 11 29 0.0 1.6 0.05 2.69 1.75 96 1008.6
20260506071600 11 29 0.0 4.8 0.05 2.69 1.75 95 1008.6
20260506061515 11 29 0.0 1.6 0.13 2.69 1.70 95 1009.1
20260506044540 11 29 0.0 1.6 0.46 2.51 1.52 95 1009.4
20260506043005 11 29 0.0 1.6 0.51 2.41 1.42 95 1009.6
20260506041603 11 29 0.0 0.0 0.56 2.34 1.35 95 1009.9
20260506040046 11 29 0.0 1.6 0.61 2.21 1.19 95 1009.7
20260506034601 11 29 0.0 0.0 0.64 2.06 1.07 95 1010.0
20260506033025 11 29 0.0 1.6 0.58 1.93 0.91 94 1010.2
20260506031516 11 29 0.0 3.2 0.48 1.75 0.76 94 1010.3